This demonstration page uses our WeatherBlox Daily Observations layout. Learn more.

39.08367, -84.50855

Hourly Observations for January 13, 2020

Temp ( °F °C ) Dew Point ( °F °C ) Humidity (%) Winds ( mph kmh ) Pressure ( in mb ) Visibility ( mi km ) Precip ( " mm )
12:10 am 00:10 Cloudy 40 4.4 38 3.3 93 93 Calm 30.29 1026 10 16.0934 0 0
12:23 am 00:23 Cloudy 40 4.4 38 3.3 93 93 Calm 30.29 1026 10 16.0934 0 0
12:53 am 00:53 Cloudy 41 5 38 3.3 89 89 Calm 30.27 1025 10 16.0934 0 0
1:53 am 01:53 Cloudy 41 5 39 3.9 93 93 SSW 5 7 30.26 1025 10 16.0934 0 0
2:40 am 02:40 Mostly Cloudy 39 3.9 37 2.8 93 93 SW 5 7 30.27 1025 10 16.0934 0 0
2:53 am 02:53 Cloudy 39 3.9 37 2.8 93 93 Calm 30.26 1025 10 16.0934 0 0
3:32 am 03:32 Cloudy 40 4.4 39 3.9 97 97 S 3 6 30.28 1025 10 16.0934 0 0
3:53 am 03:53 Cloudy 40 4.4 38 3.3 93 93 Calm 30.27 1025 10 16.0934 0 0
4:53 am 04:53 Cloudy 40 4.4 38 3.3 93 93 Calm 30.27 1025 10 16.0934 0 0
5:53 am 05:53 Cloudy 39 3.9 37 2.8 93 93 Calm 30.29 1026 10 16.0934 0 0
6:53 am 06:53 Cloudy 44 6.7 38 3.3 79 79 WSW 7 11 30.31 1026 10 16.0934 0 0
7:53 am 07:53 Cloudy 42 5.6 37 2.8 82 82 SW 6 9 30.34 1027 10 16.0934 0 0
8:53 am 08:53 Cloudy 44 6.7 37 2.8 76 76 WSW 7 11 30.36 1028 10 16.0934 0 0
9:53 am 09:53 Cloudy 45 7.2 37 2.8 74 74 WSW 6 9 30.38 1029 10 16.0934 0 0
10:53 am 10:53 Cloudy 46 7.8 37 2.8 71 71 SW 8 13 30.4 1030 10 16.0934 0 0
11:32 am 11:32 Partly Cloudy 46 7.8 36 2.2 68 68 W 6 9 30.41 1030 10 16.0934 0 0
11:46 am 11:46 Mostly Cloudy 46 7.8 36 2.2 68 68 WNW 6 9 30.41 1030 10 16.0934 0 0
11:53 am 11:53 Mostly Cloudy 46 7.8 36 2.2 68 68 WNW 6 9 30.41 1030 10 16.0934 0 0
12:53 pm 12:53 Partly Cloudy 50 10 37 2.8 61 61 WSW 6 9 30.38 1029 10 16.0934 0 0
1:53 pm 13:53 Mostly Sunny 49 9.4 37 2.8 64 64 S 5 7 30.36 1028 10 16.0934 0 0
2:53 pm 14:53 Mostly Sunny 50 10 37 2.8 61 61 WNW 5 7 30.34 1028 10 16.0934 0 0
3:53 pm 15:53 Sunny 50 10 37 2.8 61 61 WSW 3 6 30.35 1028 10 16.0934 0 0
4:53 pm 16:53 Sunny 48 8.9 37 2.8 66 66 SW 3 6 30.35 1028 10 16.0934 0 0
5:53 pm 17:53 Clear 44 6.7 36 2.2 73 73 Calm 30.35 1028 10 16.0934 0 0
6:53 pm 18:53 Clear 40 4.4 37 2.8 89 89 Calm 30.35 1028 10 16.0934 0 0
7:53 pm 19:53 Clear 38 3.3 36 2.2 93 93 Calm 30.35 1028 10 16.0934 0 0
8:53 pm 20:53 Clear 38 3.3 35 1.7 89 89 Calm 30.32 1027 10 16.0934 0 0
9:53 pm 21:53 Clear 37 2.8 36 2.2 96 96 Calm 30.3 1026 10 16.0934 0 0
10:53 pm 22:53 Clear 37 2.8 35 1.7 93 93 Calm 30.29 1026 10 16.0934 0 0
11:53 pm 23:53 Clear 36 2.2 35 1.7 97 97 Calm 30.27 1025 10 16.0934 0 0

Powered by AerisWeather